Location: Aurora Center
(43.5271°N, 98.5894°W)
Time: 09:46:45
(UTC-05:00)

Tiros 1 despin weight - Visible Passes

Search period start: 14 July 2024 00:00
Search period end: 24 July 2024 00:00
Orbit: 576 x 620 km, 48.2° (Epoch: 13 July)

Date Brightness Start Highest point End Pass type
(mag) Time Alt. Az. Time Alt. Az. Time Alt. Az.
14 Jul ? 04:40:50 18° SSW 04:43:33 35° SE 04:47:36 10° ENE visible
15 Jul ? 03:13:43 12° ESE 03:13:43 12° ESE 03:14:46 10° ESE visible
15 Jul ? 04:50:21 18° SW 04:53:30 57° SSE 04:57:50 10° ENE visible
16 Jul ? 03:23:10 21° SE 03:23:10 21° SE 03:26:08 10° E visible
16 Jul ? 04:59:47 14° WSW 05:03:30 86° SSE 05:07:57 10° ENE visible
17 Jul ? 03:32:34 34° SE 03:32:40 34° SE 03:36:40 10° ENE visible
17 Jul ? 05:09:14 10° WSW 05:13:35 69° NNW 05:18:02 10° ENE visible
18 Jul ? 03:41:55 49° S 03:42:34 55° SSE 03:46:53 10° ENE visible
18 Jul ? 05:19:26 10° W 05:23:44 54° NNW 05:28:07 10° ENE visible
19 Jul ? 02:14:36 12° E 02:14:36 12° E 02:15:07 10° E visible
19 Jul ? 03:51:13 44° WSW 03:52:33 84° SSE 03:56:58 10° ENE visible
19 Jul ? 05:29:40 10° W 05:33:55 47° N 05:38:13 10° ENE visible
20 Jul ? 02:23:52 21° E 02:23:52 21° E 02:25:38 10° ENE visible
20 Jul ? 04:00:29 29° W 04:02:35 70° NNW 04:07:01 10° ENE visible
21 Jul ? 02:33:06 34° E 02:33:06 34° E 02:35:50 10° ENE visible
21 Jul ? 04:09:43 19° W 04:12:43 55° NNW 04:17:03 10° ENE visible
22 Jul ? 02:42:18 58° ENE 02:42:18 58° ENE 02:45:53 10° ENE visible
22 Jul ? 04:18:55 12° W 04:22:51 47° N 04:27:09 10° ENE visible
23 Jul ? 02:51:28 71° NNW 02:51:31 72° NNW 02:55:55 10° ENE visible
23 Jul ? 04:28:50 10° WNW 04:33:01 44° N 04:37:16 10° ENE visible
